Year,Month,Day,Hour,Minute,Value (Times are PST for temperature in C)
2017,10,09,00,00,8.90
2017,10,09,00,01,8.90
2017,10,09,00,02,8.90
2017,10,09,00,03,8.90
2017,10,09,00,04,8.90
2017,10,09,00,05,8.90
2017,10,09,00,06,8.90
2017,10,09,00,07,8.90
2017,10,09,00,08,8.90
2017,10,09,00,09,8.80
2017,10,09,00,10,8.80
2017,10,09,00,11,8.80
2017,10,09,00,12,8.80
2017,10,09,00,13,8.80
2017,10,09,00,14,8.80
2017,10,09,00,15,8.80
2017,10,09,00,16,8.80
2017,10,09,00,17,8.80
2017,10,09,00,18,8.80
2017,10,09,00,19,8.80
2017,10,09,00,20,8.80
2017,10,09,00,21,8.70
2017,10,09,00,22,8.70
2017,10,09,00,23,8.70
2017,10,09,00,24,8.70
2017,10,09,00,25,8.70
2017,10,09,00,26,8.70
2017,10,09,00,27,8.70
2017,10,09,00,28,8.70
2017,10,09,00,29,8.60
2017,10,09,00,30,8.60
2017,10,09,00,31,8.60
2017,10,09,00,32,8.50
2017,10,09,00,33,8.50
2017,10,09,00,34,8.40
2017,10,09,00,35,8.40
2017,10,09,00,36,8.40
2017,10,09,00,37,8.30
2017,10,09,00,38,8.30
2017,10,09,00,39,8.30
2017,10,09,00,40,8.30
2017,10,09,00,41,8.30
2017,10,09,00,42,8.30
2017,10,09,00,43,8.20
2017,10,09,00,44,8.20
2017,10,09,00,45,8.20
2017,10,09,00,46,8.20
2017,10,09,00,47,8.20
2017,10,09,00,48,8.20
2017,10,09,00,49,8.20
2017,10,09,00,50,8.20
2017,10,09,00,51,8.10
2017,10,09,00,52,8.10
2017,10,09,00,53,8.10
2017,10,09,00,54,8.10
2017,10,09,00,55,8.00
2017,10,09,00,56,8.00
2017,10,09,00,57,7.90
2017,10,09,00,58,7.90
2017,10,09,00,59,7.90
2017,10,09,01,00,7.90
2017,10,09,01,01,7.90
2017,10,09,01,02,7.90
2017,10,09,01,03,7.80
2017,10,09,01,04,7.80
2017,10,09,01,05,7.80
2017,10,09,01,06,7.80
2017,10,09,01,07,7.80
2017,10,09,01,08,7.80
2017,10,09,01,09,7.70
2017,10,09,01,10,7.70
2017,10,09,01,11,7.70
2017,10,09,01,12,7.70
2017,10,09,01,13,7.60
2017,10,09,01,14,7.60
2017,10,09,01,15,7.60
2017,10,09,01,16,7.50
2017,10,09,01,17,7.50
2017,10,09,01,18,7.50
2017,10,09,01,19,7.40
2017,10,09,01,20,7.40
2017,10,09,01,21,7.40
2017,10,09,01,22,7.40
2017,10,09,01,23,7.40
2017,10,09,01,24,7.40
2017,10,09,01,25,7.40
2017,10,09,01,26,7.40
2017,10,09,01,27,7.50
2017,10,09,01,28,7.50
2017,10,09,01,29,7.50
2017,10,09,01,30,7.50
2017,10,09,01,31,7.50
2017,10,09,01,32,7.50
2017,10,09,01,33,7.40
2017,10,09,01,34,7.40
2017,10,09,01,35,7.30
2017,10,09,01,36,7.20
2017,10,09,01,37,7.20
2017,10,09,01,38,7.20
2017,10,09,01,39,7.20
2017,10,09,01,40,7.20
2017,10,09,01,41,7.20
2017,10,09,01,42,7.20
2017,10,09,01,43,7.20
2017,10,09,01,44,7.20
2017,10,09,01,45,7.10
2017,10,09,01,46,7.10
2017,10,09,01,47,7.10
2017,10,09,01,48,7.20
2017,10,09,01,49,7.20
2017,10,09,01,50,7.30
2017,10,09,01,51,7.30
2017,10,09,01,52,7.30
2017,10,09,01,53,7.30
2017,10,09,01,54,7.40
2017,10,09,01,55,7.40
2017,10,09,01,56,7.40
2017,10,09,01,57,7.50
2017,10,09,01,58,7.50
2017,10,09,01,59,7.60
2017,10,09,02,00,7.60
2017,10,09,02,01,7.60
2017,10,09,02,02,7.60
2017,10,09,02,03,7.70
2017,10,09,02,04,7.70
2017,10,09,02,05,7.70
2017,10,09,02,06,7.70
2017,10,09,02,07,7.70
2017,10,09,02,08,7.70
2017,10,09,02,09,7.70
2017,10,09,02,10,7.70
2017,10,09,02,11,7.60
2017,10,09,02,12,7.60
2017,10,09,02,13,7.60
2017,10,09,02,14,7.60
2017,10,09,02,15,7.50
2017,10,09,02,16,7.50
2017,10,09,02,17,7.40
2017,10,09,02,18,7.30
2017,10,09,02,19,7.30
2017,10,09,02,20,7.20
2017,10,09,02,21,7.20
2017,10,09,02,22,7.20
2017,10,09,02,23,7.30
2017,10,09,02,24,7.30
2017,10,09,02,25,7.30
2017,10,09,02,26,7.30
2017,10,09,02,27,7.30
2017,10,09,02,28,7.40
2017,10,09,02,29,7.40
2017,10,09,02,30,7.40
2017,10,09,02,31,7.40
2017,10,09,02,32,7.40
2017,10,09,02,33,7.40
2017,10,09,02,34,7.40
2017,10,09,02,35,7.40
2017,10,09,02,36,7.40
2017,10,09,02,37,7.40
2017,10,09,02,38,7.40
2017,10,09,02,39,7.40
2017,10,09,02,40,7.40
2017,10,09,02,41,7.40
2017,10,09,02,42,7.50
2017,10,09,02,43,7.50
2017,10,09,02,44,7.50
2017,10,09,02,45,7.50
2017,10,09,02,46,7.60
2017,10,09,02,47,7.60
2017,10,09,02,48,7.60
2017,10,09,02,49,7.60
2017,10,09,02,50,7.60
2017,10,09,02,51,7.60
2017,10,09,02,52,7.60
2017,10,09,02,53,7.70
2017,10,09,02,54,7.70
2017,10,09,02,55,7.70
2017,10,09,02,56,7.70
2017,10,09,02,57,7.70
2017,10,09,02,58,7.70
2017,10,09,02,59,7.70
2017,10,09,03,00,7.70
2017,10,09,03,01,7.70
2017,10,09,03,02,7.70
2017,10,09,03,03,7.60
2017,10,09,03,04,7.60
2017,10,09,03,05,7.50
2017,10,09,03,06,7.50
2017,10,09,03,07,7.40
2017,10,09,03,08,7.40
2017,10,09,03,09,7.30
2017,10,09,03,10,7.30
2017,10,09,03,11,7.30
2017,10,09,03,12,7.40
2017,10,09,03,13,7.40
2017,10,09,03,14,7.40
2017,10,09,03,15,7.40
2017,10,09,03,16,7.40
2017,10,09,03,17,7.40
2017,10,09,03,18,7.30
2017,10,09,03,19,7.30
2017,10,09,03,20,7.20
2017,10,09,03,21,7.20
2017,10,09,03,22,7.10
2017,10,09,03,23,7.10
2017,10,09,03,24,7.00
2017,10,09,03,25,7.00
2017,10,09,03,26,6.90
2017,10,09,03,27,6.80
2017,10,09,03,28,6.80
2017,10,09,03,29,6.80
2017,10,09,03,30,6.90
2017,10,09,03,31,6.90
2017,10,09,03,32,7.00
2017,10,09,03,33,7.10
2017,10,09,03,34,7.10
2017,10,09,03,35,7.20
2017,10,09,03,36,7.20
2017,10,09,03,37,7.20
2017,10,09,03,38,7.30
2017,10,09,03,39,7.30
2017,10,09,03,40,7.20
2017,10,09,03,41,7.20
2017,10,09,03,42,7.10
2017,10,09,03,43,7.00
2017,10,09,03,44,7.00
2017,10,09,03,45,6.90
2017,10,09,03,46,6.80
2017,10,09,03,47,6.80
2017,10,09,03,48,6.80
2017,10,09,03,49,6.70
2017,10,09,03,50,6.70
2017,10,09,03,51,6.70
2017,10,09,03,52,6.70
2017,10,09,03,53,6.70
2017,10,09,03,54,6.70
2017,10,09,03,55,6.80
2017,10,09,03,56,6.80
2017,10,09,03,57,6.90
2017,10,09,03,58,6.90
2017,10,09,03,59,6.90
2017,10,09,04,00,7.00
2017,10,09,04,01,7.00
2017,10,09,04,02,7.00
2017,10,09,04,03,7.00
2017,10,09,05,04,5.50
2017,10,09,05,05,5.50
2017,10,09,05,06,5.40
2017,10,09,05,07,5.40
2017,10,09,05,08,5.40
2017,10,09,05,09,5.40
2017,10,09,05,10,5.40
2017,10,09,05,11,5.40
2017,10,09,05,12,5.40
2017,10,09,05,13,5.40
2017,10,09,05,14,5.40
2017,10,09,05,15,5.40
2017,10,09,05,16,5.40
2017,10,09,05,17,5.40
2017,10,09,05,18,5.40
2017,10,09,05,19,5.40
2017,10,09,05,20,5.50
2017,10,09,05,21,5.50
2017,10,09,05,22,5.50
2017,10,09,05,23,5.50
2017,10,09,05,24,5.50
2017,10,09,05,25,5.50
2017,10,09,05,26,5.50
2017,10,09,05,27,5.50
2017,10,09,05,28,5.50
2017,10,09,05,29,5.50
2017,10,09,05,30,5.50
2017,10,09,05,31,5.50
2017,10,09,05,32,5.50
2017,10,09,05,33,5.50
2017,10,09,05,34,5.40
2017,10,09,05,35,5.50
2017,10,09,05,36,5.50
2017,10,09,05,37,5.50
2017,10,09,05,38,5.60
2017,10,09,05,39,5.60
2017,10,09,05,40,5.60
2017,10,09,05,41,5.60
2017,10,09,05,42,5.60
2017,10,09,05,43,5.60
2017,10,09,05,44,5.60
2017,10,09,05,45,5.60
2017,10,09,05,46,5.60
2017,10,09,05,47,5.60
2017,10,09,05,48,5.60
2017,10,09,05,49,5.60
2017,10,09,05,50,5.60
2017,10,09,05,51,5.60
2017,10,09,05,52,5.60
2017,10,09,05,53,5.60
2017,10,09,05,54,5.60
2017,10,09,05,55,5.60
2017,10,09,05,56,5.60
2017,10,09,05,57,5.60
2017,10,09,05,58,5.60
2017,10,09,05,59,5.60
2017,10,09,06,00,5.60
2017,10,09,06,01,5.60
2017,10,09,06,02,5.60
2017,10,09,06,03,5.60
2017,10,09,06,04,5.60
2017,10,09,06,05,5.60
2017,10,09,06,06,5.60
2017,10,09,06,07,5.60
2017,10,09,06,08,5.60
2017,10,09,06,09,5.50
2017,10,09,06,10,5.50
2017,10,09,06,11,5.50
2017,10,09,06,12,5.50
2017,10,09,06,13,5.50
2017,10,09,06,14,5.40
2017,10,09,06,15,5.40
2017,10,09,06,16,5.40
2017,10,09,06,17,5.40
2017,10,09,06,18,5.40
2017,10,09,06,19,5.40
2017,10,09,06,20,5.40
2017,10,09,06,21,5.40
2017,10,09,06,22,5.40
2017,10,09,06,23,5.30
2017,10,09,06,24,5.30
2017,10,09,06,25,5.30
2017,10,09,06,26,5.30
2017,10,09,06,27,5.30
2017,10,09,06,28,5.30
2017,10,09,06,29,5.30
2017,10,09,06,30,5.30
2017,10,09,06,31,5.40
2017,10,09,06,32,5.40
2017,10,09,06,33,5.50
2017,10,09,06,34,5.50
2017,10,09,06,35,5.60
2017,10,09,06,36,5.60
2017,10,09,06,37,5.70
2017,10,09,06,38,5.80
2017,10,09,06,39,5.90
2017,10,09,06,40,6.00
2017,10,09,06,41,6.10
2017,10,09,06,42,6.20
2017,10,09,06,43,6.30
2017,10,09,06,44,6.40
2017,10,09,06,45,6.40
2017,10,09,06,46,6.50
2017,10,09,06,47,6.50
2017,10,09,06,48,6.60
2017,10,09,06,49,6.60
2017,10,09,06,50,6.60
2017,10,09,06,51,6.60
2017,10,09,06,52,6.60
2017,10,09,06,53,6.60
2017,10,09,06,54,6.50
2017,10,09,06,55,6.50
2017,10,09,06,56,6.50
2017,10,09,06,57,6.60
2017,10,09,06,58,6.60
2017,10,09,06,59,6.60
2017,10,09,07,00,6.70
2017,10,09,07,01,6.70
2017,10,09,07,02,6.80
2017,10,09,07,03,6.80
2017,10,09,07,04,6.80
2017,10,09,07,05,6.90
2017,10,09,07,06,6.90
2017,10,09,07,07,6.90
2017,10,09,07,08,6.90
2017,10,09,07,09,6.90
2017,10,09,07,10,6.90
2017,10,09,07,11,7.00
2017,10,09,07,12,7.00
2017,10,09,07,13,7.10
2017,10,09,07,14,7.10
2017,10,09,07,15,7.10
2017,10,09,07,16,7.10
2017,10,09,07,17,7.10
2017,10,09,07,18,7.10
2017,10,09,07,19,7.10
2017,10,09,07,20,7.00
2017,10,09,07,21,6.90
2017,10,09,07,22,6.90
2017,10,09,07,23,6.80
2017,10,09,07,24,6.80
2017,10,09,07,25,6.70
2017,10,09,07,26,6.70
2017,10,09,07,27,6.60
2017,10,09,07,28,6.60
2017,10,09,07,29,6.50
2017,10,09,07,30,6.50
2017,10,09,07,31,6.40
2017,10,09,07,32,6.40
2017,10,09,07,33,6.30
2017,10,09,07,34,6.30
2017,10,09,07,35,6.30
2017,10,09,07,36,6.20
2017,10,09,07,37,6.20
2017,10,09,07,38,6.20
2017,10,09,07,39,6.20
2017,10,09,07,40,6.10
2017,10,09,07,41,6.10
2017,10,09,07,42,6.10
2017,10,09,07,43,6.10
2017,10,09,07,44,6.10
2017,10,09,07,45,6.10
2017,10,09,07,46,6.10
2017,10,09,07,47,6.10
2017,10,09,07,48,6.10
2017,10,09,07,49,6.00
2017,10,09,07,50,6.00
2017,10,09,07,51,6.00
2017,10,09,07,52,6.10
2017,10,09,07,53,6.10
2017,10,09,07,54,6.10
2017,10,09,07,55,6.20
2017,10,09,07,56,6.30
2017,10,09,07,57,6.30
2017,10,09,07,58,6.30
2017,10,09,07,59,6.40
2017,10,09,08,00,6.40
2017,10,09,08,01,6.40
2017,10,09,08,02,6.40
2017,10,09,08,03,6.50
2017,10,09,08,04,6.50
2017,10,09,08,05,6.50
2017,10,09,08,06,6.50
2017,10,09,08,07,6.50
2017,10,09,08,08,6.50
2017,10,09,08,09,6.50
2017,10,09,08,10,6.50
2017,10,09,08,11,6.50
2017,10,09,08,12,6.50
2017,10,09,08,13,6.50
2017,10,09,08,14,6.50
2017,10,09,08,15,6.50
2017,10,09,08,16,6.50
2017,10,09,08,17,6.50
2017,10,09,08,18,6.50
2017,10,09,08,19,6.50
2017,10,09,08,20,6.50
2017,10,09,08,21,6.50
2017,10,09,08,22,6.50
2017,10,09,08,23,6.50
2017,10,09,08,24,6.40
2017,10,09,08,25,6.40
2017,10,09,08,26,6.40
2017,10,09,08,27,6.40
2017,10,09,08,28,6.40
2017,10,09,08,29,6.40
2017,10,09,08,30,6.40
2017,10,09,08,31,6.40
2017,10,09,08,32,6.40
2017,10,09,08,33,6.50
2017,10,09,08,34,6.50
2017,10,09,08,35,6.60
2017,10,09,08,36,6.60
2017,10,09,08,37,6.70
2017,10,09,08,38,6.70
2017,10,09,08,39,6.80
2017,10,09,08,40,6.80
2017,10,09,08,41,6.80
2017,10,09,08,42,6.90
2017,10,09,08,43,6.90
2017,10,09,08,44,7.00
2017,10,09,08,45,7.10
2017,10,09,08,46,7.10
2017,10,09,08,47,7.10
2017,10,09,08,48,7.20
2017,10,09,08,49,7.20
2017,10,09,08,50,7.20
2017,10,09,08,51,7.30
2017,10,09,08,52,7.30
2017,10,09,08,53,7.30
2017,10,09,08,54,7.40
2017,10,09,08,55,7.40
2017,10,09,08,56,7.40
2017,10,09,08,57,7.50
2017,10,09,08,58,7.50
2017,10,09,08,59,7.60
2017,10,09,09,00,7.60
2017,10,09,09,01,7.70
2017,10,09,09,02,7.70
2017,10,09,09,03,7.80
2017,10,09,09,04,7.80
2017,10,09,09,05,7.90
2017,10,09,09,06,7.90
2017,10,09,09,07,8.00
2017,10,09,09,08,8.10
2017,10,09,09,09,8.10
2017,10,09,09,10,8.20
2017,10,09,09,11,8.20
2017,10,09,09,12,8.30
2017,10,09,09,13,8.40
2017,10,09,09,14,8.40
2017,10,09,09,15,8.50
2017,10,09,09,16,8.60
2017,10,09,09,17,8.70
2017,10,09,09,18,8.80
2017,10,09,09,19,8.80
2017,10,09,09,20,8.80
2017,10,09,09,21,8.90
2017,10,09,09,22,8.90
2017,10,09,09,23,9.00
2017,10,09,09,24,9.00
2017,10,09,09,25,9.10
2017,10,09,09,26,9.10
2017,10,09,09,27,9.10
2017,10,09,09,28,9.10
2017,10,09,09,29,9.10
2017,10,09,09,30,9.20
2017,10,09,09,31,9.20
2017,10,09,09,32,9.20
2017,10,09,09,33,9.30
2017,10,09,09,34,9.30
2017,10,09,09,35,9.30
2017,10,09,09,36,9.40
2017,10,09,09,37,9.40
2017,10,09,09,38,9.40
2017,10,09,09,39,9.50
2017,10,09,09,40,9.50
2017,10,09,09,41,9.60
2017,10,09,09,42,9.60
2017,10,09,09,43,9.70
2017,10,09,09,44,9.70
2017,10,09,09,45,9.80
2017,10,09,09,46,9.80
2017,10,09,09,47,9.90
2017,10,09,09,48,9.90
2017,10,09,09,49,9.90
2017,10,09,09,50,10.00
2017,10,09,09,51,10.00
2017,10,09,09,52,10.00
2017,10,09,09,53,10.10
2017,10,09,09,54,10.20
2017,10,09,09,55,10.20
2017,10,09,09,56,10.20
2017,10,09,09,57,10.30
2017,10,09,09,58,10.30
2017,10,09,09,59,10.30
2017,10,09,10,00,10.30
2017,10,09,10,01,10.30
2017,10,09,10,02,10.30
2017,10,09,10,03,10.40
2017,10,09,10,04,10.40
2017,10,09,10,05,10.40
2017,10,09,10,06,10.50
2017,10,09,10,07,10.50
2017,10,09,10,08,10.60
2017,10,09,10,09,10.70
2017,10,09,10,10,10.80
2017,10,09,10,11,10.80
2017,10,09,10,12,10.80
2017,10,09,10,13,10.80
2017,10,09,10,14,10.90
2017,10,09,10,15,10.90
2017,10,09,10,16,10.90
2017,10,09,10,17,10.90
2017,10,09,10,18,10.90
2017,10,09,10,19,11.00
2017,10,09,10,20,11.00
2017,10,09,10,21,11.00
2017,10,09,10,22,11.10
2017,10,09,10,23,11.10
2017,10,09,10,24,11.10
2017,10,09,10,25,11.20
2017,10,09,10,26,11.30
2017,10,09,10,27,11.30
2017,10,09,10,28,11.30
2017,10,09,10,29,11.30
2017,10,09,10,30,11.30
2017,10,09,10,31,11.40
2017,10,09,10,32,11.40
2017,10,09,10,33,11.40
2017,10,09,10,34,11.40
2017,10,09,10,35,11.50
2017,10,09,10,36,11.50
2017,10,09,10,37,11.50
2017,10,09,10,38,11.50
2017,10,09,10,39,11.50
2017,10,09,10,40,11.60
2017,10,09,10,41,11.60
2017,10,09,10,42,11.60
2017,10,09,10,43,11.70
2017,10,09,10,44,11.70
2017,10,09,10,45,11.80
2017,10,09,10,46,11.80
2017,10,09,10,47,11.80
2017,10,09,10,48,11.80
2017,10,09,10,49,11.80
2017,10,09,10,50,11.70
2017,10,09,10,51,11.70
2017,10,09,10,52,11.70
2017,10,09,10,53,11.80
2017,10,09,10,54,11.80
2017,10,09,10,55,11.80
2017,10,09,10,56,11.70
2017,10,09,10,57,11.70
2017,10,09,10,58,11.70
2017,10,09,10,59,11.70
2017,10,09,11,00,11.70
2017,10,09,11,01,11.60
2017,10,09,11,02,11.60
2017,10,09,11,03,11.50
2017,10,09,11,04,11.40
2017,10,09,11,05,11.30
2017,10,09,11,06,11.30
2017,10,09,11,07,11.20
2017,10,09,11,08,11.20
2017,10,09,11,09,11.20
2017,10,09,11,10,11.20
2017,10,09,11,11,11.20
2017,10,09,11,12,11.20
2017,10,09,11,13,11.30
2017,10,09,11,14,11.30
2017,10,09,11,15,11.30
2017,10,09,11,16,11.30
2017,10,09,11,17,11.30
2017,10,09,11,18,11.30
2017,10,09,11,19,11.40
2017,10,09,11,20,11.40
2017,10,09,11,21,11.40
2017,10,09,11,22,11.40
2017,10,09,11,23,11.40
2017,10,09,11,24,11.40
2017,10,09,11,25,11.40
2017,10,09,11,26,11.40
2017,10,09,11,27,11.40
2017,10,09,11,28,11.40
2017,10,09,11,29,11.40
2017,10,09,11,30,11.40
2017,10,09,11,31,11.50
2017,10,09,11,32,11.50
2017,10,09,11,33,11.60
2017,10,09,11,34,11.60
2017,10,09,11,35,11.60
2017,10,09,11,36,11.50
2017,10,09,11,37,11.40
2017,10,09,11,38,11.40
2017,10,09,11,39,11.40
2017,10,09,11,40,11.30
2017,10,09,11,41,11.40
2017,10,09,11,42,11.40
2017,10,09,11,43,11.40
2017,10,09,11,44,11.30
2017,10,09,11,45,11.30
2017,10,09,11,46,11.30
2017,10,09,11,47,11.30
2017,10,09,11,48,11.30
2017,10,09,11,49,11.30
2017,10,09,11,50,11.30
2017,10,09,11,51,11.20
2017,10,09,11,52,11.20
2017,10,09,11,53,11.20
2017,10,09,11,54,11.20
2017,10,09,11,55,11.20
2017,10,09,11,56,11.20
2017,10,09,11,57,11.30
2017,10,09,11,58,11.30
2017,10,09,11,59,11.30
2017,10,09,12,00,11.30
2017,10,09,12,01,11.40
2017,10,09,12,02,11.40
2017,10,09,12,03,11.50
2017,10,09,12,04,11.60
2017,10,09,12,05,11.70
2017,10,09,12,06,11.70
2017,10,09,12,07,11.70
2017,10,09,12,08,11.70
2017,10,09,12,09,11.70
2017,10,09,12,10,11.70
2017,10,09,12,11,11.80
2017,10,09,12,12,11.90
2017,10,09,12,13,11.90
2017,10,09,12,14,11.90
2017,10,09,12,15,11.90
2017,10,09,12,16,11.90
2017,10,09,12,17,12.00
2017,10,09,12,18,12.00
2017,10,09,12,19,12.10
2017,10,09,12,20,12.10
2017,10,09,12,21,12.10
2017,10,09,12,22,12.00
2017,10,09,12,23,12.00
2017,10,09,12,24,12.10
2017,10,09,12,25,12.10
2017,10,09,12,26,12.10
2017,10,09,12,27,12.20
2017,10,09,12,28,12.20
2017,10,09,12,29,12.20
2017,10,09,12,30,12.30
2017,10,09,12,31,12.20
2017,10,09,12,32,12.30
2017,10,09,12,33,12.30
2017,10,09,12,34,12.40
2017,10,09,12,35,12.40
2017,10,09,12,36,12.40
2017,10,09,12,37,12.50
2017,10,09,12,38,12.60
2017,10,09,12,39,12.60
2017,10,09,12,40,12.60
2017,10,09,12,41,12.60
2017,10,09,12,42,12.50
2017,10,09,12,43,12.50
2017,10,09,12,44,12.50
2017,10,09,12,45,12.40
2017,10,09,12,46,12.40
2017,10,09,12,47,12.40
2017,10,09,12,48,12.40
2017,10,09,12,49,12.40
2017,10,09,12,50,12.40
2017,10,09,12,51,12.50
2017,10,09,12,52,12.50
2017,10,09,12,53,12.50
2017,10,09,12,54,12.60
2017,10,09,12,55,12.60
2017,10,09,12,56,12.60
2017,10,09,12,57,12.70
2017,10,09,12,58,12.70
2017,10,09,12,59,12.80
2017,10,09,13,00,13.00
2017,10,09,13,01,13.10
2017,10,09,13,02,13.20
2017,10,09,13,03,13.30
2017,10,09,13,04,13.40
2017,10,09,13,05,13.50
2017,10,09,13,06,13.60
2017,10,09,13,07,13.70
2017,10,09,13,08,13.90
2017,10,09,13,09,14.00
2017,10,09,13,10,14.00
2017,10,09,13,11,14.00
2017,10,09,13,12,14.10
2017,10,09,13,13,14.10
2017,10,09,13,14,14.10
2017,10,09,13,15,14.10
2017,10,09,13,16,14.10
2017,10,09,13,17,14.00
2017,10,09,13,18,14.00
2017,10,09,13,19,14.00
2017,10,09,13,20,13.90
2017,10,09,13,21,13.90
2017,10,09,13,22,13.90
2017,10,09,13,23,13.90
2017,10,09,13,24,13.90
2017,10,09,13,25,13.90
2017,10,09,13,26,14.00
2017,10,09,13,27,14.10
2017,10,09,13,28,14.20
2017,10,09,13,29,14.20
2017,10,09,13,30,14.30
2017,10,09,13,31,14.30
2017,10,09,13,32,14.30
2017,10,09,13,33,14.20
2017,10,09,13,34,14.20
2017,10,09,13,35,14.20
2017,10,09,13,36,14.20
2017,10,09,13,37,14.20
2017,10,09,13,38,14.20
2017,10,09,13,39,14.20
2017,10,09,13,40,14.10
2017,10,09,13,41,14.10
2017,10,09,13,42,14.00
2017,10,09,13,43,13.90
2017,10,09,13,44,13.90
2017,10,09,13,45,13.90
2017,10,09,13,46,13.90
2017,10,09,13,47,14.00
2017,10,09,13,48,14.00
2017,10,09,13,49,14.10
2017,10,09,13,50,14.10
2017,10,09,13,51,14.10
2017,10,09,13,52,14.20
2017,10,09,13,53,14.30
2017,10,09,13,54,14.20
2017,10,09,13,55,14.20
2017,10,09,13,56,14.10
2017,10,09,13,57,14.00
2017,10,09,13,58,13.90
2017,10,09,13,59,13.90
2017,10,09,14,00,13.90
2017,10,09,14,01,14.00
2017,10,09,14,02,14.10
2017,10,09,14,03,14.10
2017,10,09,14,04,14.20
2017,10,09,14,05,14.20
2017,10,09,14,06,14.30
2017,10,09,14,07,14.30
2017,10,09,14,08,14.30
2017,10,09,14,09,14.30
2017,10,09,14,10,14.30
2017,10,09,14,11,14.30
2017,10,09,14,12,14.30
2017,10,09,14,13,14.40
2017,10,09,14,14,14.40
2017,10,09,14,15,14.50
2017,10,09,14,16,14.60
2017,10,09,14,17,14.60
2017,10,09,14,18,14.70
2017,10,09,14,19,14.80
2017,10,09,14,20,14.90
2017,10,09,14,21,14.90
2017,10,09,14,22,15.00
2017,10,09,14,23,15.10
2017,10,09,14,24,15.10
2017,10,09,14,25,15.10
2017,10,09,14,26,15.20
2017,10,09,14,27,15.20
2017,10,09,14,28,15.20
2017,10,09,14,29,15.30
2017,10,09,14,30,15.30
2017,10,09,14,31,15.40
2017,10,09,14,32,15.40
2017,10,09,14,33,15.40
2017,10,09,14,34,15.40
2017,10,09,14,35,15.40
2017,10,09,14,36,15.40
2017,10,09,14,37,15.40
2017,10,09,14,38,15.40
2017,10,09,14,39,15.40
2017,10,09,14,40,15.40
2017,10,09,14,41,15.40
2017,10,09,14,42,15.50
2017,10,09,14,43,15.60
2017,10,09,14,44,15.60
2017,10,09,14,45,15.70
2017,10,09,14,46,15.70
2017,10,09,14,47,15.70
2017,10,09,14,48,15.70
2017,10,09,14,49,15.70
2017,10,09,14,50,15.70
2017,10,09,14,51,15.70
2017,10,09,14,52,15.70
2017,10,09,14,53,15.70
2017,10,09,14,54,15.70
2017,10,09,14,55,15.70
2017,10,09,14,56,15.70
2017,10,09,14,57,15.70
2017,10,09,14,58,15.80
2017,10,09,14,59,15.80
2017,10,09,15,00,15.80
2017,10,09,15,01,15.80
2017,10,09,15,02,15.90
2017,10,09,15,03,15.90
2017,10,09,15,04,16.00
2017,10,09,15,05,16.00
2017,10,09,15,06,16.10
2017,10,09,15,07,16.10
2017,10,09,15,08,16.20
2017,10,09,15,09,16.30
2017,10,09,15,10,16.30
2017,10,09,15,11,16.40
2017,10,09,15,12,16.40
2017,10,09,15,13,16.40
2017,10,09,15,14,16.40
2017,10,09,15,15,16.40
2017,10,09,15,16,16.50
2017,10,09,15,17,16.50
2017,10,09,15,18,16.50
2017,10,09,15,19,16.60
2017,10,09,15,20,16.50
2017,10,09,15,21,16.50
2017,10,09,15,22,16.40
2017,10,09,15,23,16.30
2017,10,09,15,24,16.30
2017,10,09,15,25,16.20
2017,10,09,15,26,16.20
2017,10,09,15,27,16.20
2017,10,09,15,28,16.20
2017,10,09,15,29,16.30
2017,10,09,15,30,16.30
2017,10,09,15,31,16.30
2017,10,09,15,32,16.30
2017,10,09,15,33,16.20
2017,10,09,15,34,16.20
2017,10,09,15,35,16.20
2017,10,09,15,36,16.20
2017,10,09,15,37,16.20
2017,10,09,15,38,16.20
2017,10,09,15,39,16.20
2017,10,09,15,40,16.20
2017,10,09,15,41,16.10
2017,10,09,15,42,16.00
2017,10,09,15,43,15.90
2017,10,09,15,44,15.90
2017,10,09,15,45,15.80
2017,10,09,15,46,15.80
2017,10,09,15,47,15.80
2017,10,09,15,48,15.80
2017,10,09,15,49,15.70
2017,10,09,15,50,15.70
2017,10,09,15,51,15.70
2017,10,09,15,52,15.70
2017,10,09,15,53,15.70
2017,10,09,15,54,15.70
2017,10,09,15,55,15.70
2017,10,09,15,56,15.60
2017,10,09,15,57,15.60
2017,10,09,15,58,15.60
2017,10,09,15,59,15.50
2017,10,09,16,00,15.40
2017,10,09,16,01,15.30
2017,10,09,16,02,15.30
2017,10,09,16,03,15.30
2017,10,09,16,04,15.30
2017,10,09,16,05,15.30
2017,10,09,16,06,15.20
2017,10,09,16,07,15.20
2017,10,09,16,08,15.20
2017,10,09,16,09,15.10
2017,10,09,16,10,15.10
2017,10,09,16,11,15.10
2017,10,09,16,12,15.10
2017,10,09,16,13,15.10
2017,10,09,16,14,15.10
2017,10,09,16,15,15.10
2017,10,09,16,16,15.10
2017,10,09,16,17,15.00
2017,10,09,16,18,15.00
2017,10,09,16,19,14.90
2017,10,09,16,20,14.90
2017,10,09,16,21,14.90
2017,10,09,16,22,14.80
2017,10,09,16,23,14.80
2017,10,09,16,24,14.80
2017,10,09,16,25,14.80
2017,10,09,16,26,14.90
2017,10,09,16,27,15.00
2017,10,09,16,28,15.10
2017,10,09,16,29,15.20
2017,10,09,16,30,15.30
2017,10,09,16,31,15.30
2017,10,09,16,32,15.40
2017,10,09,16,33,15.40
2017,10,09,16,34,15.40
2017,10,09,16,35,15.40
2017,10,09,16,36,15.40
2017,10,09,16,37,15.40
2017,10,09,16,38,15.40
2017,10,09,16,39,15.40
2017,10,09,16,40,15.30
2017,10,09,16,41,15.30
2017,10,09,16,42,15.20
2017,10,09,16,43,15.10
2017,10,09,16,44,15.10
2017,10,09,16,45,15.10
2017,10,09,16,46,15.00
2017,10,09,16,47,15.00
2017,10,09,16,48,15.10
2017,10,09,16,49,15.10
2017,10,09,16,50,15.10
2017,10,09,16,51,15.10
2017,10,09,16,52,15.20
2017,10,09,16,53,15.20
2017,10,09,16,54,15.20
2017,10,09,16,55,15.20
2017,10,09,16,56,15.20
2017,10,09,16,57,15.20
2017,10,09,16,58,15.20
2017,10,09,16,59,15.20
2017,10,09,17,00,15.20
2017,10,09,17,01,15.10
2017,10,09,17,02,15.10
2017,10,09,17,03,15.10
2017,10,09,17,04,15.00
2017,10,09,17,05,15.00
2017,10,09,17,06,15.00
2017,10,09,17,07,15.00
2017,10,09,17,08,15.00
2017,10,09,17,09,15.00
2017,10,09,17,10,15.10
2017,10,09,17,11,15.10
2017,10,09,17,12,15.00
2017,10,09,17,13,15.00
2017,10,09,17,14,15.00
2017,10,09,17,15,14.90
2017,10,09,17,16,14.90
2017,10,09,17,17,14.90
2017,10,09,17,18,14.80
2017,10,09,17,19,14.80
2017,10,09,17,20,14.70
2017,10,09,17,21,14.70
2017,10,09,17,22,14.70
2017,10,09,17,23,14.60
2017,10,09,17,24,14.60
2017,10,09,17,25,14.60
2017,10,09,17,26,14.50
2017,10,09,17,27,14.40
2017,10,09,17,28,14.30
2017,10,09,17,29,14.30
2017,10,09,17,30,14.20
2017,10,09,17,31,14.10
2017,10,09,17,32,14.00
2017,10,09,17,33,13.90
2017,10,09,17,34,13.90
2017,10,09,17,35,13.80
2017,10,09,17,36,13.70
2017,10,09,17,37,13.60
2017,10,09,17,38,13.50
2017,10,09,17,39,13.50
2017,10,09,17,40,13.40
2017,10,09,17,41,13.30
2017,10,09,17,42,13.30
2017,10,09,17,43,13.30
2017,10,09,17,44,13.20
2017,10,09,17,45,13.20
2017,10,09,17,46,13.10
2017,10,09,17,47,13.00
2017,10,09,17,48,13.00
2017,10,09,17,49,13.00
2017,10,09,17,50,12.90
2017,10,09,17,51,12.90
2017,10,09,17,52,12.90
2017,10,09,17,53,12.90
2017,10,09,17,54,12.80
2017,10,09,17,55,12.80
2017,10,09,17,56,12.80
2017,10,09,17,57,12.70
2017,10,09,17,58,12.70
2017,10,09,17,59,12.70
2017,10,09,18,00,12.60
2017,10,09,18,01,12.60
2017,10,09,18,02,12.60
2017,10,09,18,03,12.60
2017,10,09,18,04,12.50
2017,10,09,18,05,12.50
2017,10,09,18,06,12.50
2017,10,09,18,07,12.40
2017,10,09,18,08,12.40
2017,10,09,18,09,12.40
2017,10,09,18,10,12.30
2017,10,09,18,11,12.30
2017,10,09,18,12,12.30
2017,10,09,18,13,12.30
2017,10,09,18,14,12.20
2017,10,09,18,15,12.20
2017,10,09,18,16,12.20
2017,10,09,18,17,12.20
2017,10,09,18,18,12.10
2017,10,09,18,19,12.10
2017,10,09,18,20,12.10
2017,10,09,18,21,12.00
2017,10,09,18,22,12.00
2017,10,09,18,23,12.00
2017,10,09,18,24,11.90
2017,10,09,18,25,11.90
2017,10,09,18,26,11.90
2017,10,09,18,27,11.90
2017,10,09,18,28,11.90
2017,10,09,18,29,11.90
2017,10,09,18,30,11.80
2017,10,09,18,31,11.80
2017,10,09,18,32,11.80
2017,10,09,18,33,11.80
2017,10,09,18,34,11.70
2017,10,09,18,35,11.70
2017,10,09,18,36,11.70
2017,10,09,18,37,11.70
2017,10,09,18,38,11.60
2017,10,09,18,39,11.60
2017,10,09,18,40,11.60
2017,10,09,18,41,11.60
2017,10,09,18,42,11.50